Weather History for Anchorage, AK

Change the Weather History Date:

Monday, February 17, 2014

  Actual Average Record
Temperature  
Mean Temperature 18 °F 21 °F  
Max Temperature 24 °F 27 °F 45 °F (1920)
Min Temperature 12 °F 14 °F -22 °F (1954)
Degree Days  
Heating Degree Days 47    
Month to date heating degree days 829  
Since 1 July heating degree days 6284  
Cooling Degree Days 0    
Month to date cooling degree days 0  
Year to date cooling degree days 0  
Moisture  
Dew Point 11 °F    
Average Humidity 71    
Maximum Humidity 88    
Minimum Humidity 54    
Precipitation  
Precipitation 0.02 in 0.02 in 0.30 in (1928)
Month to date precipitation 0.11 0.46  
Year to date precipitation 1.48 1.19  
Snow  
Snow 0.30 in 0.40 in 3.60 in (1988)
Month to date snowfall 1.8 6.9  
Since 1 July snowfall 45.3 56.3  
Snow Depth 6.00 in    
Sea Level Pressure  
Sea Level Pressure 29.10 in    
Wind  
Wind Speed 3 mph (NNE)    
Max Wind Speed 10 mph    
Max Gust Speed -    
Visibility 8 miles    
Events Snow    
T = Trace of Precipitation, MM = Missing Value Source: NWS Daily Summary

Daily Weather History Graph

Daily Weather History Graph

Search for Another Location

Airport:

Trip Planner

Search our weather history database for the weather conditions in past years. The results will help you decide how hot, cold, wet, or windy it might be!

Date:

Astronomy

Feb. 17, 2014 Rise Set
Actual Time 8:35 AM AKST 5:53 PM AKST
Civil Twilight 7:50 AM AKST 6:38 PM AKST
Nautical Twilight 7:00 AM AKST 7:29 PM AKST
Astronomical Twilight 6:10 AM AKST 8:19 PM AKST
Moon 10:01 PM AKST (2/17) 8:46 AM AKST (2/17)
Length of Visible Light 10h 47m
Length of Day
9h 17m
Waning Gibbous, 92% of the Moon is Illuminated
Feb 17
Waning Gibbous
Feb 22
Last Quarter
Feb 28
New
Mar 8
First Quarter
Mar 16
Full

Hourly Weather History & Observations

Time (AKST) Temp. Windchill Dew Point Humidity Pressure Visibility Wind Dir Wind Speed Gust Speed Precip Events Conditions
12:53 AM 18.0 °F - 10.9 °F 74% 29.06 in 10.0 mi Calm Calm - N/A   Overcast
1:53 AM 19.9 °F - 10.9 °F 68% 29.07 in 10.0 mi Calm Calm - N/A   Overcast
2:26 AM 19.4 °F 10.4 °F 12.2 °F 74% 29.06 in 3.0 mi North 6.9 mph - 0.00 in Snow Light Snow
2:53 AM 19.9 °F 13.4 °F 12.9 °F 74% 29.07 in 5.0 mi North 4.6 mph - 0.00 in Snow Light Snow
3:27 AM 19.4 °F 12.8 °F 15.8 °F 86% 29.06 in 2.0 mi North 4.6 mph - 0.00 in Snow Light Snow
3:53 AM 19.9 °F 13.4 °F 16.0 °F 85% 29.07 in 1.5 mi North 4.6 mph - 0.00 in Snow Snow
4:33 AM 19.4 °F 10.4 °F 17.6 °F 93% 29.06 in 3.0 mi NNW 6.9 mph - 0.01 in Snow Snow
4:53 AM 21.0 °F 11.4 °F 14.0 °F 74% 29.06 in 3.0 mi North 8.1 mph - 0.01 in   Overcast
5:25 AM 21.2 °F 9.5 °F 12.2 °F 68% 29.04 in 10.0 mi North 11.5 mph - N/A   Overcast
5:53 AM 21.0 °F 9.9 °F 10.9 °F 65% 29.05 in 10.0 mi North 10.4 mph - N/A   Overcast
6:53 AM 19.9 °F 10.1 °F 10.0 °F 65% 29.04 in 10.0 mi North 8.1 mph - N/A   Overcast
7:53 AM 19.9 °F 12.1 °F 10.9 °F 68% 29.03 in 10.0 mi North 5.8 mph - N/A   Overcast
8:53 AM 19.9 °F 13.4 °F 10.0 °F 65% 29.03 in 10.0 mi NNE 4.6 mph - N/A   Overcast
9:53 AM 19.9 °F 14.9 °F 8.1 °F 60% 29.04 in 10.0 mi NNE 3.5 mph - N/A   Overcast
10:53 AM 21.0 °F - 9.0 °F 60% 29.05 in 10.0 mi Calm Calm - N/A   Mostly Cloudy
11:53 AM 21.0 °F - 10.0 °F 63% 29.06 in 10.0 mi Calm Calm - N/A   Mostly Cloudy
12:53 PM 21.0 °F - 12.0 °F 68% 29.07 in 10.0 mi Calm Calm - N/A   Mostly Cloudy
1:53 PM 23.0 °F - 9.0 °F 55% 29.08 in 10.0 mi Calm Calm - N/A   Mostly Cloudy
2:53 PM 23.0 °F - 9.0 °F 55% 29.08 in 10.0 mi Calm Calm - N/A   Mostly Cloudy
3:53 PM 24.1 °F - 10.9 °F 57% 29.10 in 10.0 mi Calm Calm - N/A   Mostly Cloudy
4:53 PM 23.0 °F - 12.0 °F 63% 29.11 in 10.0 mi Calm Calm - N/A   Mostly Cloudy
5:53 PM 19.9 °F - 9.0 °F 62% 29.13 in 10.0 mi Calm Calm - N/A   Mostly Cloudy
6:53 PM 16.0 °F - 10.0 °F 77% 29.16 in 10.0 mi Calm Calm - N/A   Scattered Clouds
7:53 PM 14.0 °F 8.2 °F 9.0 °F 80% 29.18 in 10.0 mi ESE 3.5 mph - N/A   Mostly Cloudy
8:53 PM 14.0 °F 6.5 °F 10.0 °F 84% 29.21 in 10.0 mi SSE 4.6 mph - N/A   Scattered Clouds
9:53 PM 14.0 °F 8.2 °F 10.9 °F 88% 29.23 in 10.0 mi SSE 3.5 mph - N/A   Mostly Cloudy
10:53 PM 12.9 °F - 9.0 °F 84% 29.24 in 10.0 mi Calm Calm - N/A   Overcast
11:53 PM 14.0 °F - 12.0 °F 92% 29.26 in 10.0 mi Calm Calm - N/A   Overcast